Ocean City, MD

11:41 AM EDT on June 23, 2017 (GMT -0400)
Ocean City Municipal

Weather History for KOXB - March, 2013

Change the Weather History Date:

Tuesday, March 26, 2013

  Actual Average (KSBY) Record (KSBY)
Temperature  
Mean Temperature 42 °F -  
Max Temperature 48 °F 56 °F 84 °F (1921)
Min Temperature 35 °F 35 °F 20 °F (1974)
Degree Days  
Heating Degree Days 24    
Moisture  
Dew Point 34 °F    
Average Humidity 85    
Maximum Humidity 100    
Minimum Humidity 52    
Precipitation  
Precipitation 0.00 in - - ()
Sea Level Pressure  
Sea Level Pressure 29.80 in    
Wind  
Wind Speed 6 mph (NW)    
Max Wind Speed 8 mph    
Max Gust Speed 21 mph    
Visibility 6 miles    
Events      
Averages and records for this station are not official NWS values.
T = Trace of Precipitation, MM = Missing Value Source: NWS Daily Summary

Daily Weather History Graph

Daily Weather History Graph

Search for Another Location

Airport or City:

Trip Planner

Search our weather history database for the weather conditions in past years. The results will help you decide how hot, cold, wet, or windy it might be!

Date:

Astronomy

Mar. 26, 2013 Rise Set
Actual Time 6:54 AM EDT 7:18 PM EDT
Civil Twilight 6:27 AM EDT 7:44 PM EDT
Nautical Twilight 5:56 AM EDT 8:15 PM EDT
Astronomical Twilight 5:25 AM EDT 8:47 PM EDT
Moon 6:52 PM EDT (3/26) 6:09 AM EDT (3/26)
Length of Visible Light 13h 16m
Length of Day
12h 23m
Waxing Gibbous, 99% of the Moon is Illuminated
Mar 26
Waxing Gibbous
Mar 27
Full
Apr 3
Last Quarter
Apr 10
New
Apr 18
First Quarter

Hourly Weather History & Observations

Time (EDT) Temp. Windchill Dew Point Humidity Pressure Visibility Wind Dir Wind Speed Gust Speed Precip Events Conditions
12:13 AM 35.6 °F 30.7 °F 35.6 °F 100% 29.67 in 5.0 mi WNW 5.8 mph - N/A   Overcast
12:30 AM 35.6 °F 30.7 °F 35.6 °F 100% 29.67 in 4.0 mi NW 5.8 mph - N/A   Overcast
12:53 AM 35.1 °F 30.1 °F 35.1 °F 100% 29.68 in 4.0 mi NW 5.8 mph - N/A   Overcast
1:53 AM 35.1 °F 28.6 °F 35.1 °F 100% 29.70 in 4.0 mi WNW 8.1 mph - N/A   Overcast
2:22 AM 35.6 °F 29.2 °F 35.6 °F 100% 29.70 in 4.0 mi WNW 8.1 mph - N/A   Overcast
2:51 AM 35.6 °F 29.9 °F 35.6 °F 100% 29.71 in 4.0 mi WNW 6.9 mph - N/A   Overcast
2:53 AM 35.1 °F 29.3 °F 35.1 °F 100% 29.71 in 4.0 mi WNW 6.9 mph - N/A   Overcast
3:53 AM 35.1 °F 29.3 °F 35.1 °F 100% 29.72 in 4.0 mi WNW 6.9 mph - 0.00 in   Overcast
4:21 AM 35.6 °F 29.2 °F 33.8 °F 93% 29.72 in 4.0 mi NW 8.1 mph - 0.00 in   Overcast
4:53 AM 35.1 °F 28.6 °F 34.0 °F 96% 29.73 in 4.0 mi WNW 8.1 mph - 0.00 in   Overcast
5:53 AM 35.1 °F 30.1 °F 35.1 °F 100% 29.75 in 5.0 mi NW 5.8 mph - N/A   Overcast
6:34 AM 35.6 °F 32.8 °F 35.6 °F 100% 29.76 in 3.0 mi NW 3.5 mph - N/A   Overcast
6:42 AM 35.6 °F 30.7 °F 33.8 °F 93% 29.77 in 3.0 mi NW 5.8 mph - N/A   Overcast
6:53 AM 35.1 °F 30.1 °F 34.0 °F 96% 29.77 in 3.0 mi NW 5.8 mph - N/A   Overcast
7:53 AM 35.1 °F 29.3 °F 34.0 °F 96% 29.79 in 2.5 mi NW 6.9 mph - N/A   Overcast
8:44 AM 35.6 °F 29.2 °F 35.6 °F 100% 29.80 in 3.0 mi WNW 8.1 mph - N/A   Scattered Clouds
8:53 AM 37.0 °F 32.4 °F 35.1 °F 93% 29.81 in 3.0 mi NW 5.8 mph - N/A   Scattered Clouds
9:17 AM 39.2 °F 35.0 °F 35.6 °F 87% 29.81 in 4.0 mi NW 5.8 mph - N/A   Mostly Cloudy
9:53 AM 39.0 °F 34.0 °F 36.0 °F 89% 29.82 in 4.0 mi WNW 6.9 mph - N/A   Mostly Cloudy
10:20 AM 41.0 °F 35.8 °F 35.6 °F 81% 29.82 in 6.0 mi NW 8.1 mph - N/A   Haze
10:53 AM 43.0 °F 38.2 °F 36.0 °F 76% 29.83 in 9.0 mi NNW 8.1 mph - N/A   Mostly Cloudy
11:53 AM 44.1 °F 40.8 °F 34.0 °F 68% 29.83 in 10.0 mi NW 5.8 mph - N/A   Mostly Cloudy
12:18 PM 46.4 °F 42.9 °F 33.8 °F 62% 29.83 in 10.0 mi Variable 6.9 mph - N/A   Mostly Cloudy
12:53 PM 46.9 °F - 33.1 °F 59% 29.83 in 10.0 mi Variable 5.8 mph - N/A   Mostly Cloudy
1:53 PM 48.0 °F - 30.9 °F 52% 29.83 in 10.0 mi WNW 8.1 mph - N/A   Mostly Cloudy
2:53 PM 48.0 °F - 30.9 °F 52% 29.83 in 10.0 mi NNW 6.9 mph - N/A   Overcast
3:53 PM 44.1 °F 39.5 °F 37.9 °F 79% 29.83 in 9.0 mi East 8.1 mph - N/A   Overcast
4:53 PM 44.1 °F 41.5 °F 37.0 °F 76% 29.84 in 10.0 mi East 4.6 mph 20.7 mph N/A   Overcast
5:53 PM 44.1 °F - 36.0 °F 73% 29.86 in 10.0 mi Calm Calm - N/A   Overcast
6:53 PM 43.0 °F - 37.0 °F 80% 29.87 in 9.0 mi Calm Calm - N/A   Overcast
7:53 PM 39.9 °F - 37.0 °F 89% 29.90 in 10.0 mi Calm Calm - N/A   Mostly Cloudy
8:53 PM 39.9 °F 36.7 °F 30.0 °F 68% 29.92 in 10.0 mi West 4.6 mph - N/A   Clear
9:53 PM 39.0 °F 34.8 °F 28.9 °F 67% 29.94 in 10.0 mi West 5.8 mph - N/A   Clear
10:53 PM 37.9 °F 33.5 °F 30.0 °F 73% 29.94 in 10.0 mi West 5.8 mph - N/A   Clear
11:53 PM 37.9 °F 34.4 °F 30.0 °F 73% 29.95 in 10.0 mi WNW 4.6 mph - N/A   Clear